SL-16 DEB, 22377

Orbit data source: Space-Track

SL-16 DEB, 22377 is space debris in LEO originally from a launch on Fri, 25 Dec 1992 UTC launched from the Tyuratam Missile And Space Complex (TTMTR). Debris objects in space refer to the collection of defunct objects orbiting the Earth. Examples of debris include non-operational satellites, rocket bodies, and fragments generated from explosions, collisions, or faulty payload assembly.

Loading next visibility...
Identifier
22377, 1992-093BS
Orbit
LEO
Country
Flag of CISCIS
Related business
Manufacturer
Unknown
Mission
Spacecraft
Bus & Motor
Unknown
Mass
Unknown
Launch date (UTC)
1992-12-25 (33 years ago)
Launch vehicle
Unknown
Launch site
Tyuratam Missile And Space Complex (TTMTR)
Object type
Payload
Rocket body
Debris
Shape & HBR
Unknown shape, 0.1 m
Radar Cross Section
Small (<0.1 m²)

Expand to show TLE details & history
Last TLE update: 14 hours ago

TLE from 14 hours ago
0 SL-16 DEB
1 22377U 92093BS  26133.34552546 -.00000046  00000-0  12107-6 0  9991
2 22377  71.0962   3.5979 0054130  47.0512 313.5130 14.09260750710539
Epoch: 2026-05-13T08:17Z
TLE epoch observation values (Epoch: 2026-05-13T08:17:33.399Z)
Latitude
0.00004°
Longitude
8.10187°
Altitude
837.428 km
Speed
7.448 km/s
True Right ascension
00h 14m 23s
True Declination
0° 00' 00"
Sunlit
Object was in daylight at epoch
Visualization orbit readout
Latitude
Unknown
Longitude
Unknown
Altitude
Unknown
Speed
Unknown
Apparent Right ascension
Unknown
Apparent Declination
Unknown
Sunlit
N/A
Visualization observer readout
Local Sidereal Time
06:53:36
Azimuth
Unknown
Elevation
Unknown
Doppler factor
Unknown
Orbital elements
Apogee altitude
899.003 km
Perigee altitude
820.644 km
Semi-major axis
7,237.961 km
Eccentricity
0.00541
Inclination
71.0962°
RAAN
3.5979°
Arg. of periapsis
47.0512°
True anomaly
313.06106°
Mean anomaly
313.513°
Eccentric anomaly
313.28724°
Mean motion
3.52467 °/min
Orbital period
102.14 mins
BSTAR
1.2107e-7
Loading maneuver chart data...
Computing Atmospheric mass density...
Loading historical data...
Loading historical data...
Loading historical data...
Loading historical data...
Loading historical data...
Loading historical data...
Loading historical data...

Documentation

Showing up to 5 results
|